#timestamp,LO_Frequency,Hit,StdDev 
1709542815.4,286046998.1,N
1709542835.2,286046998.2,N
1709542855.1,286047000.9,N
1709542856.0,286047000.9,N
1709542875.8,286046998.6,N
1709542895.7,286046998.6,N
1709542915.5,286047000.5,N
1709542935.3,286047002.8,N
1709542955.2,286047000.0,N
1709542975.9,286047001.1,N
1709542995.7,286046998.4,N
1709543015.6,286046998.6,N
1709543035.4,286046998.4,N
1709543055.2,286047000.8,N
1709543075.1,286047002.8,N
1709543076.0,286047002.8,N
1709543095.8,286047000.4,N
1709543115.7,286047000.6,N
1709543135.5,286047001.0,N
1709543155.3,286047000.6,N
1709543175.2,286046998.2,N
1709543195.0,286047000.5,N
1709543195.9,286047000.5,N
1709543215.7,286047000.0,N
1709543235.6,286046998.4,N
1709543255.4,286046998.8,N
1709543275.3,286046999.3,N
1709543295.1,286046996.6,N
1709543296.0,286046996.6,N
1709543315.8,286046998.9,N
1709543335.7,286046996.8,N
1709543355.5,286046997.2,N
1709543375.3,286046997.1,N
1709543395.2,286046999.6,N
1709543415.0,286046998.7,N
1709543415.9,286046998.7,N
1709543435.8,286046998.5,N
1709543455.6,286046998.8,N
1709543475.4,286046996.6,N
1709543495.3,286046999.0,N
1709543515.1,286046998.5,N
1709543535.8,286046998.2,N
1709543555.7,286046998.9,N
1709543575.5,286046999.0,N
1709543595.4,286046998.9,N
1709543615.2,286046998.6,N
1709543635.0,286046997.2,N
1709543655.5,286046997.2,N
1709543675.4,286046996.5,N
1709543695.2,286046996.6,N
1709543715.0,286046998.4,N
1709543715.9,286046998.4,N
1709543735.8,286046999.6,N
1709543755.6,286046998.2,N
1709543775.4,286046998.4,N
1709543795.3,286046999.5,N
1709543815.1,286046999.1,N
1709543835.9,286046997.1,N
1709543855.7,286046997.9,N
1709543875.5,286046995.5,Y
1709543895.5,286046996.8,P
1709543915.3,286046996.6,P
1709543935.2,286046996.6,P
1709543955.9,286046997.2,Y
1709543975.7,286046999.7,P
1709543995.6,286046999.7,N
1709544015.4,286046999.7,N
1709544035.3,286047000.2,N
1709544055.1,286047002.0,N
1709544056.0,286047002.0,N
1709544075.8,286047001.4,N
1709544095.7,286047001.4,N
1709544115.5,286047004.0,N
1709544135.3,286047002.2,N
1709544155.2,286047002.3,N
1709544175.0,286047001.8,N
1709544175.9,286047001.8,N
1709544195.8,286047001.4,N
1709544215.6,286047003.8,N
1709544235.4,286047003.0,N
1709544255.3,286047004.2,N
1709544275.4,286047002.2,N
1709544295.2,286047003.9,N
1709544315.0,286047004.3,N
1709544315.9,286047004.3,N
1709544335.8,286047001.5,N
1709544355.6,286047002.0,N
1709544375.4,286047001.8,N
1709544395.3,286047001.4,N
1709544415.1,286047003.9,N
1709544435.9,286047001.7,N
1709544455.7,286047002.1,N
1709544475.5,286047001.6,N
1709544495.4,286047002.7,N
1709544515.2,286047002.2,N
1709544535.0,286047004.0,Y
1709544535.9,286047004.0,P
1709544555.8,286047002.4,N
1709544575.6,286046999.7,N
1709544595.5,286047002.7,N
1709544615.3,286047002.4,N
1709544635.1,286047001.2,N
1709544655.9,286047001.1,N
1709544675.7,286047000.1,N
1709544695.5,286047000.3,N
1709544715.3,286046999.0,N
1709544735.1,286046998.6,N
1709544755.9,286046999.4,N
1709544775.7,286046999.2,N
1709544795.5,286046996.7,N
1709544815.4,286046996.7,N
1709544835.2,286046997.2,N
1709544855.0,286046997.1,N
1709544855.9,286046997.1,N
1709544875.8,286046996.7,N
1709544895.6,286046996.8,N
1709544915.4,286046996.9,N
1709544935.3,286047001.2,N
1709544955.1,286047001.1,N
1709544975.9,286046998.3,N
1709544995.7,286046999.0,N
1709545015.5,286046996.5,N
1709545035.5,286046998.8,N
1709545055.4,286046996.7,N
1709545075.2,286046997.1,N
1709545095.0,286046997.7,N
1709545096.0,286046997.7,N
1709545115.8,286046997.1,N
1709545135.6,286046996.9,N
1709545155.5,286046998.8,N
1709545175.3,286046996.7,N
1709545195.1,286046997.0,N
1709545215.9,286046999.5,N
1709545235.7,286046996.6,N
1709545255.5,286046996.5,N
1709545275.4,286046996.7,N
1709545295.2,286046997.3,N
1709545315.1,286046999.5,N
1709545316.0,286046999.5,N
1709545335.8,286046997.1,N
1709545355.6,286046997.4,N
1709545375.5,286046997.8,N
1709545395.3,286046999.2,N
1709545415.1,286046997.0,N
1709545435.9,286046997.1,N
1709545455.7,286046996.7,N
1709545475.6,286046997.8,N
1709545495.4,286046996.6,N
1709545515.2,286046996.9,N
1709545535.1,286046997.2,N
1709545536.0,286046997.2,N
1709545555.8,286046996.6,Y
1709545575.7,286046998.7,P
1709545595.5,286046998.3,N
1709545615.3,286047002.7,P
1709545635.2,286047002.5,N
1709545655.9,286047002.7,N
1709545675.7,286047002.6,N
1709545695.6,286047000.4,N
1709545715.4,286047000.9,N
1709545735.2,286047000.5,N
1709545755.1,286047000.5,N
1709545756.0,286047000.5,N
1709545775.8,286047000.7,N
1709545795.7,286046999.0,N
1709545815.5,286047000.8,N
1709545835.3,286046998.5,N
1709545855.2,286046998.5,N
1709545875.0,286046998.4,N
1709545875.9,286046998.4,N
1709545895.7,286047001.0,N
1709545915.6,286046998.9,N
1709545935.4,286047000.8,N
1709545955.3,286046998.2,N
1709545975.1,286047000.5,N
1709545976.0,286047000.5,N
1709545995.8,286047000.7,N
1709546015.7,286047002.8,N
1709546035.5,286047002.5,N
1709546055.3,286047002.5,N
1709546075.2,286047000.5,N
1709546095.0,286047000.4,N
1709546095.9,286047000.4,N
1709546115.7,286047002.6,N
1709546135.6,286047000.3,N
1709546155.4,286047000.1,N
1709546175.3,286047002.6,N
1709546195.1,286047002.8,N
1709546196.0,286047002.8,N
1709546215.8,286047000.1,N
1709546235.3,286047000.6,N
1709546255.1,286047000.9,N
1709546275.8,286047001.0,N
1709546295.7,286046999.8,N
1709546315.5,286047000.5,N
1709546335.4,286047000.6,N
1709546355.2,286047002.7,N
1709546375.0,286047001.3,N
1709546375.9,286047001.3,N
1709546395.8,286047002.2,N
